2024-252D

Last updated on Thu Jan 23 2025 00:02:05 GMT+0000 (Coordinated Universal Time)

1 62457U 24252D 25021.66572316 -.00000115 00000+0 -22724-1 0 9991 2 62457 11.2306 355.8383 7941964 187.7325 140.7903 1.08199063 255
UTC large
Height (km)
Speed (km/s)
/
Latitude / Longitude
Inclination (degrees)
Orbital Period (minutes)
Azimuth
Elevation
Range (km)
Doppler Factor

Next 0 passes for location: London (51.5072 / 0.1276)

Sorry there are no passes over London.